Regional Weather Roundup
Issued by NWS

Home | Current Version | Previous Version | Graphics & Text | Print | Product List | Glossary On
Versions: 1 2 3 4 5 6 7 8 9 10 11 12 13 14 15 16 17 18 19 20 21 22 23 24 25 26 27 28 29 30 31 32 33 34 35 36 37 38 39 40 41 42 43 44 45 46 47 48 49 50
158
ASUS45 KTFX 281410
RWRMT
MONTANA REGIONAL WEATHER ROUNDUP
NATIONAL WEATHER SERVICE GREAT FALLS MT
800 AM MDT FRI APR 28 2017

NOTE: "FAIR" INDICATES FEW OR NO CLOUDS BELOW 12000 FEET WITH NO
SIGNIFICANT WEATHER AND/OR OBSTRUCTIONS TO VISIBILITY.

MTZ001>007-043-281500-
WEST OF THE DIVIDE

CITY           SKY/WX    TMP DP  RH WIND       PRES   REMARKS
KALISPELL      CLOUDY    40  38  93 CALM      30.02R
MISSOULA       LGT RAIN  39  34  82 CALM      30.05R
BUTTE          SUNNY     30  22  72 CALM      29.98R
MULLAN PASS    FOG       28  27  96 CALM      29.98R VSB 1/4
ANACONDA         N/A     34  25  69 CALM      29.99R
DEER LODGE       N/A     30  25  80 CALM      30.03R
EUREKA           N/A     41  36  81 CALM      30.02R
HAMILTON         N/A     37  28  70 CALM      30.03R
LIBBY            N/A     37  34  87 CALM      30.03R
PLAINS           N/A     42  35  76 E2        30.04
RONAN            N/A     39  35  85 CALM      30.06R
THOMPSON FALLS   N/A     40  38  93 CALM      30.10
$$

MTZ008-052>055-281500-
SOUTHWEST MONTANA

CITY           SKY/WX    TMP DP  RH WIND       PRES   REMARKS
DILLON         MOSUNNY   31  23  72 CALM      29.96R
W YELLOWSTONE  CLOUDY    27  25  93 NE3       29.86R
THREE FORKS      N/A     36  36 100 CALM      29.96R
TWIN BRIDGES     N/A     36  19  50 N13       29.95  WCI  27
$$

MTZ009-010-012-014-046-048-049-054-281500-
EAST SLOPES AND CENTRAL MONTANA

CITY           SKY/WX    TMP DP  RH WIND       PRES   REMARKS
CUT BANK       CLOUDY    37  35  92 NW8       29.98R WCI  31
GREAT FALLS    CLOUDY    38  34  85 SW5       29.97R
MALMSTROM AFB  CLOUDY    38  37  94 W5        29.98R
HELENA         CLOUDY    38  28  67 CALM      29.98R
AUGUSTA        PTSUNNY   37  30  78 NW8       29.96R WCI  30
BOWMANS CRNR   CLOUDY    31  28  88 W6        29.95R WCI  25
CHOTEAU          N/A     37  34  87 N6        30.00R
FAIRFIELD      PTSUNNY   36  33  88 NW3       29.97R
POWER          CLOUDY    37  35  95 NW5       29.97R
RAYNESFORD     PTSUNNY   37  35  96 CALM      29.97R
ULM            CLOUDY    38  33  84 CALM      29.98R
$$

MTZ011-013-016-021-045-047-050-051-281500-
NORTH CENTRAL MONTANA

CITY           SKY/WX    TMP DP  RH WIND       PRES   REMARKS
HAVRE          CLOUDY    33  32  96 CALM      29.98R
LEWISTOWN      LGT RAIN  35  34  96 N6        29.95R WCI  30
CHINOOK          N/A     34  34 100 W3        29.99R
DENTON         CLOUDY    37  36  94 N6        29.93R
FORT BENTON      N/A     43  39  87 N3        29.99R
GEYSER         CLOUDY    37  35  91 SW7       29.95R
GRASS RANGE    FLURRIES  34  32  95 CALM      29.93R
JUDITH GAP     PTSUNNY   35  34  98 N22       29.91R WCI  23
STANFORD       CLOUDY    37  35  93 NW9       29.95R WCI  30
WINIFRED       PTSUNNY   38  37  94 N6        29.95R
$$

MTZ017>020-022>027-061-062-281500-
NORTHEAST MONTANA

CITY           SKY/WX    TMP DP  RH WIND       PRES   REMARKS
GLASGOW        CLOUDY    43  19  38 E7        29.97R
JORDAN           N/A     41  25  53 E7        29.94R
SIDNEY         SUNNY     39  24  55 E3        30.01R
WOLF POINT     CLOUDY    38  23  55 E10       29.99R WCI  31
PLENTYWOOD       N/A     37  25  60 SE5       30.00R
POPLAR           N/A     37  23  56 E6        30.00R
SCOBEY           N/A     37  19  48 CALM      29.97R
$$

MTZ028>42-056>058-281500-
SOUTHCENTRAL AND SOUTHEAST MONTANA

CITY           SKY/WX    TMP DP  RH WIND       PRES   REMARKS
BAKER          MOSUNNY   35  24  64 E10       29.95R WCI  27
BILLINGS       CLOUDY    39  37  92 NE10      29.91R
LIVINGSTON     CLOUDY    37  33  85 W5        29.91R
MILES CITY     PTSUNNY   39  26  59 NE9       29.93R
BIG TIMBER     MOSUNNY   34  34 100 VRB3      29.95R FOG
EKALAKA          N/A     36  24  62 E12       29.90R WCI  28
LAUREL           N/A     38  32  79 N8        29.90R
ROUNDUP          N/A     38  32  79 NW16      29.84R WCI  29
$$

REGIONAL REPORTS...DAKOTAS

CITY           SKY/WX    TMP DP  RH WIND       PRES   REMARKS
WILLISTON      SUNNY     39  27  62 CALM      30.02R
MINOT          SUNNY     39  29  67 CALM      30.00R
DICKINSON      SUNNY     35  26  69 E7        29.95R WCI  29
BEACH            N/A     37  27  65 SE9       30.00R WCI  31
TIOGA            N/A     36  32  87 SW3       30.02R
WATFORD CITY     N/A     36  27  69 CALM      30.00R
BISMARCK       SUNNY     39  29  67 CALM      30.00R
GRAND FORKS    SUNNY     39  30  70 NW9       29.95R
FARGO          SUNNY     36  30  79 N9        29.95R WCI  29
BUFFALO SD       N/A     37  27  67 E10       29.86R WCI  30
RAPID CITY     CLOUDY    36  30  79 NE10      29.87R WCI  28
$$

REGIONAL REPORTS...WYOMING/IDAHO/WASHINGTON

CITY           SKY/WX    TMP DP  RH WIND       PRES   REMARKS
GILLETTE       SNOW      32  32 100 NE13      29.82R WCI  22
SHERIDAN       CLOUDY    34  32  92 W10       29.88R WCI  26
BUFFALO WY     SNOW      33  29  85 NW20      29.84R VSB 1/2 WCI  21
CODY           LGT SNOW  33  31  92 N18G26    29.83R FOG     WCI  22
YELLOWSTONE LA   N/A     24  20  84 VRB5      29.83R
IDAHO FALLS    CLOUDY    33  31  92 S7        29.90R WCI  27
SALMON         CLOUDY    32  27  80 CALM      30.01R
BOISE          SUNNY     38  32  79 NW13      30.04R WCI  30
SPOKANE        PTSUNNY   37  32  82 S8        30.07R WCI  31
$$

REGIONAL REPORTS...ALBERTA

CITY           SKY/WX    TMP DP  RH WIND       PRES   REMARKS
EDMONTON       SUNNY     28  27  93 CALM      30.06R
CALGARY        CLOUDY    34  28  80 NW5       30.02R
LETHBRIDGE     LGT SNOW  34  34 100 N7        30.03R FOG     WCI  28
MEDICINE HAT   CLOUDY    37  34  87 N3        30.01R
WATERTON GATE    N/A     32  30  93 N6          N/A  WCI  26
MILK RIVER       N/A     34  32  93 N15         N/A  WCI  24
$$

REGIONAL REPORTS...SASKATCHEWAN

CITY           SKY/WX    TMP DP  RH WIND       PRES   REMARKS
SWIFT CURRENT  CLOUDY    34  34 100 SW5G24    29.96R
REGINA         PTSUNNY   39  25  56 SE8       29.99R
SASKATOON      PTSUNNY   39  23  52 S3        30.00R
CYPRESS HILLS    N/A     36  27  69 NW6         N/A  WCI  31
VAL MARIE        N/A     43  34  70 CALM        N/A
ASSINIBOIA       N/A     34  34 100 N5          N/A
$$




USA.gov is the U.S. government's official web portal to all federal, state and local government web resources and services.